Temperature
17 18 18 18 18 18 18 18 18 18 18 18 18 18 18 18 18 18 18 18 18 18 18 18 18 18 18 18 18 18 18 18 18 18 18 18 18 18 18 18 18 18 18
18 18 18 18 18 18 18 18 18 18 18 18 18 18 18 18 18 18 18 18 18 18 18 18 18 18 18 18 18 18 18 18 18 18 18 18 18 18 18 18 18 18 18
18 18 18 18 18 18 18 18 18 18 18 18 18 18 18 18 18 18 18 18 18 18 18 18 17 17 17 18 18 18 17 17 17 18 18 18 18 18 18 18 18 18 18
18 18 18 18 18 18 18 18 18 18 18 18 17 17 17 17 17 17 17 17 17 17 17 17 17 17 17 17 17 17 17 17 17 17 17 18 18 18 18 18 18 18 18
18 18 18 18 18 18 18 18 18 18 18 17 17 17 17 17 17 17 17 17 17 17 17 17 17 17 17 17 17 17 17 17 17 17 17 17 17 17 18 18 18 18 18
18 18 18 18 18 18 18 18 18 17 17 17 17 17 17 17 17 17 16 16 16 17 17 17 17 17 17 17 17 17 17 17 17 17 17 17 17 17 18 18 18 18 18
18 17 17 18 18 18 18 17 17 17 17 17 17 17 16 16 16 16 16 16 16 16 16 17 17 17 17 17 17 17 17 17 17 17 17 17 17 17 17 18 18 18 18
18 17 17 17 18 18 17 17 17 17 17 17 16 16 16 16 16 16 16 16 16 16 16 16 16 16 17 17 17 17 17 17 17 17 17 17 17 17 17 17 17 17 17
18 18 17 17 17 17 17 17 17 17 17 16 16 16 16 16 16 16 16 16 16 16 16 16 16 16 16 17 17 17 17 17 16 17 17 17 17 17 17 17 17 17 17
17 17 17 17 17 17 17 17 17 17 16 16 16 16 16 16 16 16 16 16 16 16 16 16 16 16 16 16 16 17 16 16 16 16 17 17 17 17 17 17 17 17 17
17 17 17 17 17 17 17 17 16 16 16 16 16 16 16 16 16 16 16 16 16 16 16 16 16 16 16 16 16 16 16 16 16 16 16 17 17 17 17 17 17 17 17
17 17 17 17 17 17 17 17 16 16 16 16 16 16 16 16 16 16 15 15 15 16 16 16 16 16 16 16 16 16 16 16 16 16 16 16 16 17 17 17 17 17 17
18 18 17 17 17 17 17 17 16 16 16 16 16 16 16 16 16 16 15 15 15 15 16 16 16 16 16 16 16 16 16 16 16 16 16 16 16 16 16 17 17 17 17
18 18 17 17 17 17 17 17 17 16 16 16 16 16 16 16 16 15 15 15 15 15 15 16 16 16 16 16 16 16 16 16 16 16 16 16 16 16 16 16 17 17 17
18 18 17 17 17 17 17 17 17 16 16 16 16 16 16 16 15 15 15 15 15 15 15 15 16 16 16 16 16 16 16 16 16 16 16 16 16 16 16 16 16 16 17
18 18 17 17 17 17 17 17 16 16 16 16 16 16 16 15 15 15 15 15 15 15 15 15 15 15 16 16 16 16 16 16 16 16 16 16 16 16 16 16 16 16 16
18 18 17 17 17 17 17 17 16 16 16 16 16 16 15 15 15 15 15 15 15 15 15 15 15 15 16 16 16 16 16 16 16 16 16 16 16 16 16 16 16 16 16
18 18 17 17 17 17 17 16 16 16 16 16 16 15 15 15 15 15 15 15 15 15 15 15 15 15 16 16 16 16 16 15 16 16 16 16 16 16 16 16 16 16 16
18 18 17 17 17 17 17 16 16 16 16 16 15 15 15 15 15 15 15 15 15 15 15 15 15 16 16 16 16 16 15 15 15 15 15 15 15 15 15 15 15 16 16
18 18 17 17 17 17 16 16 16 16 16 15 15 15 15 15 15 15 15 15 15 15 15 15 15 15 16 16 16 15 15 15 15 15 15 15 15 15 15 15 15 15 15
18 18 17 17 17 17 16 16 16 16 15 15 15 15 15 15 15 15 15 15 15 15 15 15 15 15 16 16 16 15 15 15 15 15 15 15 15 15 15 15 15 15 15
18 18 17 17 17 17 16 16 16 16 15 15 15 15 15 15 15 15 15 15 15 15 15 15 15 15 15 15 15 15 15 15 15 15 15 15 15 15 15 15 15 15 15
18 18 17 17 17 17 16 16 16 16 15 15 15 15 15 15 15 15 15 15 15 15 15 15 15 15 15 15 15 15 15 15 15 15 15 15 15 15 15 15 15 15 15
18 18 17 17 17 17 16 16 16 16 16 15 15 15 15 15 15 15 15 15 14 14 15 15 15 15 15 15 15 15 15 15 15 14 14 15 14 14 14 14 15 15 15
18 18 17 17 17 17 16 16 16 16 16 15 15 15 15 15 15 15 15 15 14 14 14 15 14 14 15 15 15 15 15 15 15 14 14 14 14 14 14 14 14 14 14
18 18 17 17 17 17 16 16 16 16 16 16 16 15 15 15 15 15 15 15 14 14 14 14 14 14 14 14 14 14 14 14 14 14 14 14 14 14 14 14 14 14 14
Wind_Speed
1 4 10 12 13 13 14 14 15 15 15 15 15 15 15 15 14 14 13 13 13 12 12 11 11 10 10 9 9 8 8 8 8 7 7 7 7 7 7 7 7 6 7
5 8 11 12 14 14 14 15 15 15 16 15 15 15 14 14 13 13 13 12 12 11 11 10 10 9 9 8 8 8 7 7 7 7 6 6 6 6 7 6 6 6 6
7 9 11 13 14 15 15 15 15 15 15 15 14 14 14 14 13 12 12 11 11 10 9 9 8 8 7 7 7 7 7 6 6 6 5 4 4 6 7 6 6 6 6
9 9 11 13 14 15 15 15 15 15 15 14 14 13 13 13 12 11 10 10 10 9 9 8 7 7 6 6 6 7 6 6 6 5 4 4 5 6 6 6 6 6 6
9 10 12 14 15 15 15 15 14 14 14 13 13 12 12 11 10 10 9 9 9 8 8 7 7 6 6 6 6 6 6 6 6 6 5 4 4 5 6 6 6 5 5
8 10 13 14 14 14 14 14 13 13 12 12 11 11 10 9 9 8 8 8 7 7 7 6 6 6 6 6 6 6 6 6 5 4 4 4 4 5 5 5 4 4 5
8 9 12 14 14 13 13 13 12 12 11 10 9 9 8 8 8 7 7 7 6 6 5 5 5 4 5 5 5 6 6 6 5 4 3 4 4 5 5 4 3 3 4
9 9 11 13 13 13 12 12 11 10 9 8 8 7 6 6 5 5 5 5 5 4 4 3 3 4 4 5 5 5 6 6 5 4 3 3 4 5 5 4 3 4 4
8 8 8 10 11 12 11 10 10 8 7 6 5 4 4 3 3 3 3 3 3 3 3 3 3 4 5 5 5 5 4 5 4 2 2 3 4 5 5 4 4 4 4
6 6 6 7 8 8 8 9 8 6 5 3 2 1 1 1 2 2 1 1 1 2 3 3 4 5 5 5 4 4 3 4 3 2 1 2 4 4 5 4 4 4 4
6 5 5 5 6 6 6 5 5 3 2 0 1 1 1 1 1 1 2 2 2 3 4 5 6 6 6 5 4 3 3 3 2 1 0 3 4 4 4 4 4 4 4
6 5 5 5 5 6 5 4 2 1 1 1 1 1 0 1 1 1 2 2 3 5 5 6 7 7 6 5 4 4 2 2 1 1 1 3 4 4 4 5 4 4 4
6 5 5 4 5 5 3 4 2 1 2 3 3 2 3 3 3 3 3 4 5 5 5 6 6 6 5 4 3 3 2 1 0 1 1 3 4 4 5 5 4 4 4
6 5 5 4 4 4 5 4 3 3 3 4 5 6 6 4 3 3 3 4 4 4 4 4 4 5 5 4 2 2 1 1 1 2 2 3 3 4 4 4 4 4 4
6 5 4 4 5 4 4 3 4 4 5 6 7 8 8 4 2 3 3 4 4 4 3 3 3 4 4 4 4 3 2 2 2 2 2 2 3 3 4 4 4 4 4
6 5 4 5 5 5 4 3 4 5 7 8 8 7 9 7 5 3 3 4 5 5 4 4 3 3 3 3 4 3 2 2 2 2 2 1 2 2 3 3 4 4 4
6 5 5 5 5 6 5 5 6 6 8 8 7 9 9 8 7 5 3 3 4 6 7 5 5 4 4 4 5 4 3 2 2 3 3 2 2 1 2 3 3 3 3
6 5 5 6 6 6 6 6 6 7 8 7 8 9 9 9 8 6 4 3 5 7 6 3 3 3 4 4 4 4 3 3 3 3 4 4 3 2 2 3 3 3 3
7 7 7 6 6 6 6 6 6 7 7 7 8 8 8 9 9 7 4 4 6 5 4 3 4 3 3 4 3 4 4 4 3 4 4 4 4 3 3 3 3 3 4
7 7 7 6 6 6 5 5 5 5 4 6 7 7 8 8 9 7 5 5 6 4 4 4 4 4 3 2 3 4 4 4 4 3 3 4 4 5 4 5 4 4 5
7 7 7 6 5 5 4 4 4 2 2 3 4 7 8 8 7 7 4 4 4 4 4 4 3 5 4 3 3 4 5 5 5 4 4 3 4 5 5 5 4 4 4
7 7 7 6 5 4 3 3 3 3 2 1 3 5 7 8 7 5 4 3 3 4 5 5 4 3 4 4 3 3 4 5 4 5 4 3 3 4 5 5 5 4 4
7 7 7 5 5 4 4 4 4 4 3 3 3 3 4 7 7 6 5 4 4 3 3 3 3 3 3 4 3 3 3 0 2 4 4 4 4 3 3 3 5 5 4
7 7 7 5 5 5 6 6 6 4 2 1 0 1 3 6 6 6 6 6 4 3 3 3 3 2 3 3 3 2 2 3 2 2 4 4 4 3 3 2 3 4 4
7 7 7 6 5 5 6 7 6 4 2 1 2 2 3 4 6 6 6 6 4 4 4 4 4 4 3 2 2 2 2 3 2 2 1 3 3 3 3 2 2 2 3
6 6 6 7 5 5 6 6 7 6 5 4 3 3 2 2 3 5 6 6 5 4 4 4 4 5 4 3 3 2 2 2 1 2 1 1 2 3 3 2 2 2 2
Wind_Direction
99 111 111 107 103 100 98 97 95 94 93 92 90 88 86 85 83 83 83 81 78 76 76 75 74 74 74 73 72 70 68 67 67 68 70 74 73 81 84 87 91 95 93
133 114 110 108 104 102 100 96 93 93 92 91 89 88 87 85 83 82 82 81 78 75 71 70 71 71 71 68 67 65 63 62 68 65 70 68 69 83 88 88 88 101 99
117 111 107 106 104 102 100 97 94 92 92 92 90 89 87 85 82 79 78 79 77 75 72 70 71 71 68 64 60 57 54 56 60 66 71 63 69 92 91 90 86 99 101
115 112 111 110 107 105 101 98 96 95 94 93 92 90 88 85 82 79 76 76 75 74 71 69 69 67 62 57 52 47 45 44 54 65 65 62 76 97 94 93 93 97 98
111 112 117 114 110 108 105 103 100 98 96 95 94 91 90 87 84 80 77 76 74 72 69 65 61 59 56 50 44 41 41 40 49 57 73 76 82 99 98 98 96 96 98
115 117 120 117 114 111 109 107 104 102 100 99 97 94 92 89 85 82 81 77 74 70 65 60 56 52 49 44 39 35 36 36 44 65 84 90 93 99 98 100 96 92 99
122 122 122 119 117 117 116 114 111 109 108 106 101 97 93 89 85 82 80 77 74 68 61 52 46 40 39 33 28 27 32 38 52 82 96 103 104 100 96 96 99 97 105
132 129 127 126 125 122 122 122 119 117 115 113 108 101 96 90 87 84 81 76 71 64 54 39 25 20 16 10 10 20 31 38 54 70 93 112 105 101 98 96 90 93 97
135 135 135 136 135 134 133 132 132 131 128 124 119 112 104 88 79 85 81 77 68 49 31 13 2 2 356 354 360 8 22 42 55 57 99 124 110 104 97 95 90 89 84
137 143 150 153 151 150 148 146 146 144 144 142 138 127 89 54 53 63 59 47 39 17 359 348 339 339 343 350 357 7 18 30 44 40 75 136 120 111 101 93 92 92 80
146 156 164 168 169 172 169 168 159 155 164 172 320 315 333 338 321 317 302 295 336 341 334 331 328 332 341 348 355 10 13 17 21 28 155 144 126 121 112 101 95 97 86
163 174 176 179 183 185 182 165 154 131 28 30 4 334 112 134 310 318 315 317 341 344 340 336 337 340 347 345 347 358 360 11 17 6 174 142 127 123 115 108 99 98 98
165 167 172 172 173 162 139 133 127 88 53 36 41 77 98 81 56 38 13 354 350 349 352 348 349 350 352 345 340 351 345 11 237 210 176 141 127 120 114 111 103 101 102
139 146 153 157 143 134 125 119 119 99 78 62 63 78 84 73 54 41 21 5 358 357 0 2 6 6 7 1 9 28 41 94 138 157 146 131 124 120 116 109 101 101 101
117 118 130 125 118 116 109 107 101 94 86 73 64 68 81 81 59 41 26 23 14 13 18 18 19 25 19 24 42 66 77 98 103 118 131 128 120 120 116 107 100 98 103
122 124 114 113 118 107 100 100 99 87 79 69 64 65 71 72 67 51 34 25 20 24 35 43 40 37 20 30 30 45 83 101 97 94 95 95 98 107 115 107 100 96 100
135 127 116 119 104 98 98 99 95 90 81 69 65 66 66 66 66 64 47 29 20 28 35 39 38 37 31 33 28 28 54 65 78 74 81 79 43 58 111 109 104 97 92
134 123 119 119 104 97 96 97 93 90 83 75 70 63 59 59 63 63 51 30 27 36 38 38 36 34 26 26 24 20 30 45 60 75 73 69 62 51 71 91 89 81 75
135 127 120 114 107 98 94 90 86 85 80 77 71 62 58 60 62 62 49 33 38 39 30 33 39 40 32 21 24 25 23 29 32 66 65 60 59 65 66 58 62 62 58
129 121 116 108 102 100 89 81 72 67 60 67 67 62 61 58 60 62 53 39 43 42 30 31 34 32 35 19 38 34 20 17 24 38 50 60 54 58 63 60 55 54 57
126 121 123 116 110 108 100 101 99 88 66 54 58 63 60 57 58 63 56 41 41 46 35 30 34 34 23 19 49 21 3 15 26 23 29 52 51 54 61 60 58 60 52
137 132 132 131 130 125 124 127 130 127 102 72 47 49 51 52 49 56 56 46 44 45 36 34 41 41 22 29 78 70 18 360 358 12 14 36 41 47 51 54 60 67 63
142 146 144 146 136 127 119 102 85 65 50 38 32 23 21 40 45 48 51 50 44 50 42 33 47 65 41 17 51 108 109 249 323 344 4 16 16 28 30 49 60 66 67
151 147 142 144 134 126 121 117 117 119 122 158 159 17 15 36 43 49 51 55 50 45 38 29 54 65 77 38 14 40 119 156 134 356 344 356 8 16 7 27 49 55 57
147 142 141 134 127 123 121 124 121 118 126 106 75 59 33 20 33 49 57 58 53 45 41 44 49 56 66 75 45 29 45 50 71 117 359 341 354 345 346 349 25 37 41
138 136 134 134 136 132 126 126 128 130 125 111 91 74 40 14 14 35 55 56 55 51 49 51 55 59 54 60 55 54 70 68 48 97 121 325 331 322 340 348 358 350 358
Height
1535 1535 1535 1535 1536 1536 1536 1536 1537 1537 1537 1537 1538 1538 1538 1539 1539 1539 1539 1539 1540 1539 1539 1539 1539 1539 1539 1539 1539 1539 1539 1538 1538 1538 1538 1538 1537 1537 1537 1537 1537 1537 1537
1536 1536 1536 1536 1537 1537 1537 1537 1538 1538 1538 1538 1539 1539 1539 1539 1540 1540 1540 1540 1540 1540 1540 1540 1540 1540 1539 1539 1539 1539 1539 1539 1539 1538 1538 1538 1537 1537 1537 1537 1537 1537 1537
1536 1537 1537 1537 1538 1538 1538 1539 1539 1539 1539 1539 1540 1540 1540 1540 1540 1540 1540 1540 1540 1540 1540 1540 1540 1540 1540 1540 1539 1539 1539 1539 1539 1539 1538 1538 1536 1536 1537 1537 1537 1538 1538
1537 1538 1538 1539 1539 1539 1539 1540 1540 1540 1540 1540 1541 1541 1541 1541 1541 1541 1541 1541 1541 1541 1540 1540 1540 1540 1540 1540 1540 1540 1540 1539 1539 1539 1539 1538 1537 1537 1537 1537 1537 1537 1538
1539 1539 1540 1540 1540 1540 1540 1541 1541 1541 1541 1541 1542 1542 1541 1541 1541 1541 1541 1541 1541 1541 1541 1541 1541 1540 1540 1540 1540 1540 1540 1540 1540 1540 1539 1539 1538 1538 1538 1538 1538 1538 1538
1540 1541 1541 1541 1541 1542 1542 1542 1542 1542 1542 1542 1543 1543 1542 1542 1542 1542 1542 1542 1541 1541 1541 1541 1541 1541 1541 1541 1541 1540 1540 1540 1540 1540 1540 1539 1539 1538 1538 1538 1538 1538 1537
1541 1542 1542 1543 1543 1543 1543 1543 1543 1543 1544 1544 1544 1544 1543 1543 1543 1543 1542 1542 1542 1542 1542 1541 1541 1541 1541 1541 1541 1541 1541 1541 1541 1540 1540 1539 1539 1538 1538 1538 1538 1538 1537
1542 1543 1544 1544 1544 1544 1544 1545 1545 1545 1545 1545 1545 1545 1545 1544 1544 1543 1543 1543 1543 1542 1542 1542 1542 1541 1542 1541 1541 1541 1541 1541 1541 1540 1540 1540 1539 1539 1538 1538 1538 1537 1537
1544 1545 1545 1546 1546 1546 1546 1547 1547 1547 1547 1547 1547 1547 1546 1546 1545 1544 1544 1544 1543 1543 1543 1542 1542 1542 1542 1542 1541 1541 1541 1541 1541 1541 1540 1540 1539 1539 1538 1538 1538 1537 1536
1546 1547 1547 1547 1548 1548 1548 1549 1549 1549 1549 1548 1548 1548 1547 1547 1546 1546 1545 1545 1544 1544 1544 1543 1543 1542 1542 1542 1542 1541 1541 1541 1541 1540 1540 1540 1539 1539 1539 1538 1538 1537 1536
1548 1548 1549 1549 1549 1550 1550 1550 1550 1550 1550 1550 1549 1549 1548 1548 1547 1547 1546 1546 1545 1545 1544 1544 1543 1543 1543 1542 1542 1542 1541 1541 1541 1540 1539 1539 1539 1539 1539 1538 1538 1538 1537
1548 1549 1550 1550 1551 1551 1552 1552 1552 1552 1551 1551 1550 1550 1549 1549 1548 1548 1548 1547 1547 1546 1545 1544 1544 1544 1543 1543 1542 1542 1541 1541 1541 1540 1539 1539 1539 1539 1539 1538 1538 1538 1538
1549 1550 1551 1552 1552 1553 1553 1553 1553 1553 1552 1552 1551 1551 1550 1550 1549 1549 1549 1548 1548 1547 1546 1545 1545 1544 1543 1543 1543 1542 1542 1541 1541 1540 1540 1540 1539 1539 1539 1539 1538 1538 1538
1550 1551 1552 1553 1553 1554 1554 1554 1554 1554 1553 1553 1553 1552 1551 1551 1550 1550 1549 1549 1548 1548 1547 1546 1545 1545 1544 1543 1543 1543 1542 1542 1542 1541 1541 1540 1540 1540 1540 1539 1539 1539 1539
1551 1552 1553 1554 1555 1555 1555 1555 1555 1555 1555 1554 1554 1553 1552 1552 1551 1550 1550 1550 1549 1548 1547 1547 1546 1545 1545 1544 1544 1543 1543 1543 1543 1542 1542 1541 1541 1541 1540 1540 1540 1539 1539
1552 1553 1554 1555 1556 1556 1556 1556 1556 1556 1556 1555 1555 1554 1553 1552 1552 1551 1551 1550 1549 1549 1548 1547 1547 1546 1545 1545 1544 1544 1544 1544 1544 1543 1543 1543 1542 1542 1541 1541 1541 1540 1540
1553 1554 1555 1556 1557 1557 1557 1557 1557 1557 1557 1556 1555 1555 1554 1553 1553 1552 1551 1551 1550 1549 1549 1548 1547 1547 1546 1545 1545 1545 1545 1545 1545 1544 1544 1544 1543 1543 1543 1542 1541 1541 1541
1553 1554 1555 1557 1557 1558 1558 1558 1558 1558 1558 1557 1556 1556 1555 1554 1554 1553 1552 1551 1551 1550 1549 1549 1548 1547 1547 1546 1546 1546 1546 1546 1546 1545 1545 1544 1544 1544 1543 1543 1542 1542 1541
1554 1555 1556 1557 1558 1558 1559 1559 1559 1559 1559 1558 1557 1557 1556 1555 1554 1554 1553 1552 1552 1551 1550 1549 1549 1548 1548 1547 1547 1547 1547 1547 1547 1546 1546 1546 1545 1545 1544 1544 1543 1543 1543
1555 1556 1557 1557 1558 1559 1559 1560 1560 1560 1559 1559 1558 1558 1557 1556 1555 1554 1554 1553 1552 1552 1551 1550 1550 1549 1549 1548 1548 1548 1548 1548 1548 1547 1547 1547 1546 1546 1545 1545 1544 1544 1544
1555 1556 1557 1558 1559 1559 1560 1560 1560 1560 1560 1560 1559 1559 1558 1557 1556 1556 1555 1554 1553 1552 1552 1551 1551 1550 1550 1549 1549 1549 1549 1549 1549 1548 1548 1548 1547 1547 1546 1546 1545 1545 1544
1555 1556 1557 1558 1559 1560 1560 1561 1561 1561 1561 1560 1560 1560 1559 1558 1558 1557 1556 1555 1554 1553 1553 1552 1552 1551 1551 1550 1550 1549 1550 1551 1550 1549 1549 1549 1548 1548 1547 1547 1546 1546 1545
1555 1556 1557 1558 1559 1560 1560 1561 1561 1561 1561 1561 1561 1561 1560 1560 1559 1558 1557 1556 1555 1554 1554 1553 1553 1552 1552 1551 1551 1551 1550 1550 1550 1551 1550 1549 1549 1549 1548 1547 1547 1546 1545
1555 1556 1557 1558 1559 1560 1561 1561 1561 1562 1562 1562 1562 1562 1561 1561 1560 1559 1558 1557 1556 1555 1555 1554 1554 1553 1553 1552 1552 1551 1551 1551 1551 1551 1551 1550 1550 1549 1548 1548 1547 1547 1546
1554 1556 1557 1558 1559 1560 1561 1561 1562 1562 1563 1563 1563 1562 1562 1562 1561 1560 1559 1558 1557 1557 1556 1555 1555 1554 1554 1553 1553 1552 1552 1551 1551 1551 1550 1550 1550 1550 1549 1548 1548 1547 1546
1554 1556 1557 1558 1559 1560 1561 1562 1562 1563 1563 1563 1563 1563 1562 1562 1562 1561 1560 1559 1559 1558 1557 1556 1556 1555 1555 1554 1554 1553 1552 1552 1551 1551 1551 1550 1550 1550 1550 1549 1548 1547 1546